User: anonymous   Login
Location: St. Louis
(38.6270°N, 90.1994°W)
Time: 23:33:00
(UTC-06:00)
Language:

BEESAT 3 - Orbit

View from above orbital plane
View from above orbital plane
View from above satellite
View from above satellite

Ground track
Ground track

The orbit data is extracted from the following two-line orbital elements,

1 39134U 13015E   22024.55043030  .00005953  00000-0  24662-3 0  9995
2 39134  64.8626 172.6055 0028745 302.7296  57.1062 15.24507281484894
Epoch (UTC): 24 January 2022 13:12:37
Eccentricity: 0.0028745
inclination: 64.8626°
perigee height: 472 km
apogee height: 512 km
right ascension of ascending node: 172.6055°
argument of perigee: 302.7296°
revolutions per day: 15.24507281
mean anomaly at epoch: 57.1062°
orbit number at epoch: 48489

The dashed part of the orbit path shows where the satellite is in the earth's shadow,  

DLR